Regional Weather Roundup
Issued by NWS

Home | Current Version | Previous Version | Text Only | Print | Product List | Glossary Off
Versions: 1 2 3 4 5 6 7 8 9 10 11 12 13 14 15 16 17 18 19 20 21 22 23 24 25 26 27 28 29 30 31 32 33 34 35 36 37 38 39 40 41 42 43 44 45 46 47 48 49 50

000
ASUS43 KMKX 261800
RWRWI

WISCONSIN REGIONAL WEATHER ROUNDUP
NATIONAL WEATHER SERVICE MILWAUKEE/SULLIVAN WI
100 PM CDT WED JUL 26 2017

NOTE: "FAIR" INDICATES FEW OR NO CLOUDS BELOW 12,000 FEET WITH NO
SIGNIFICANT WEATHER AND/OR OBSTRUCTIONS TO VISIBILITY.

WIZ001-002-006>008-014>016-023>028-261900-
NORTHWEST WISCONSIN

CITY           SKY/WX    TMP DP  RH WIND       PRES   REMARKS
SUPERIOR ARPT  NOT AVBL
ASHLAND        SUNNY     80  63  55 W13G18    29.97F HX  81
6HR MIN TEMP:  69; 6HR MAX TEMP:  80;

HAYWARD        CLOUDY    77  63  61 VRB5      30.01F
6HR MIN TEMP:  70; 6HR MAX TEMP:  77;

SIREN          CLOUDY    76  62  61 NW9       30.01F
CUMBERLAND     CLOUDY    72  61  68 NW7       30.01F
RICE LAKE      CLOUDY    74  68  79 NW5       30.02F
CHETEK         NOT AVBL
LADYSMITH      CLOUDY    74  71  91 W6        30.02F
EAU CLAIRE     NOT AVBL
MENOMONIE      LGT RAIN  72  70  94 W3        30.01F
NEW RICHMOND   CLOUDY    76  70  82 NW5       30.02S
OSCEOLA        CLOUDY    76  67  73 NW6       30.04S
$$

WIZ003>005-009-010-017-018-261900-
NORTH CENTRAL WISCONSIN

CITY           SKY/WX    TMP DP  RH WIND       PRES   REMARKS
MANITOWISH WTR CLOUDY    74  66  77 SW8       30.00S
ARBOR VITAE    CLOUDY    73  69  85 W8        30.00S
WOODRUFF       CLOUDY    73  69  85 W8        30.00S
RHINELANDER    CLOUDY    71  70  96 W8        30.01S
6HR MIN TEMP:  69; 6HR MAX TEMP:  71; 6HR PCP:  0.24;

EAGLE RIVER    CLOUDY    72  69  89 W10       29.99S
LAND O LAKES   CLOUDY    76  63  64 W7        30.00S
PHILLIPS       CLOUDY    72  69  89 W5        30.01S
6HR MIN TEMP:  67; 6HR MAX TEMP:  72; 6HR PCP:  0.56;

TOMAHAWK         N/A     70  67  92 W5        30.01F
MEDFORD        CLOUDY    70  68  92 SW5       30.01R
MERRILL        NOT AVBL
$$

WIZ029-030-035-036-043>047-261900-
CENTRAL WISCONSIN

CITY           SKY/WX    TMP DP  RH WIND       PRES   REMARKS
WAUSAU         CLOUDY    71  68  90 W8        30.00R
6HR MIN TEMP:  67; 6HR MAX TEMP:  71; 6HR PCP:  0.58;

MOSINEE        PTSUNNY   72  70  94 W3        30.03R
MARSHFIELD     CLOUDY    73  67  81 W8        30.02S
6HR MIN TEMP:  67; 6HR MAX TEMP:  73; 6HR PCP:  0.27;

STEVENS POINT  CLOUDY    73  70  91 SW7       30.01F
WAUPACA        CLOUDY    78  72  79 SW6       30.00F HX  81
WAUTOMA        MOSUNNY   81  71  71 SW6       30.00F HX  85
6HR MIN TEMP:  67; 6HR MAX TEMP:  81;

WISC RAPIDS    CLOUDY    79  69  71 W10       30.03R HX  81
6HR MIN TEMP:  69; 6HR MAX TEMP:  79; 6HR PCP:  0.43;

CAMP DOUGLAS   NOT AVBL
$$

WIZ011>013-019>022-031-037>040-048>050-261900-
NORTHEAST WISCONSIN

CITY           SKY/WX    TMP DP  RH WIND       PRES   REMARKS
ANTIGO         CLOUDY    70  69  98 NW8       29.99F
SHAWANO        PTSUNNY   77  71  79 SW8       29.98S
6HR MIN TEMP:  67; 6HR MAX TEMP:  77; 6HR PCP:  0.13;

OCONTO         CLOUDY    71  68  91 SW9       29.97F
STURGEON BAY     N/A     71  68  90 SW13      29.98R
6HR MIN TEMP:  66; 6HR MAX TEMP:  71;

GREEN BAY      MOSUNNY   75  71  87 SW7       29.98F
6HR MIN TEMP:  67; 6HR MAX TEMP:  75; 6HR PCP:  0.47;

MANITOWOC      NOT AVBL
APPLETON       PTSUNNY   75  68  78 SW10      29.99F
CLINTONVILLE   CLOUDY   N/A N/A N/A SW9       29.99F
OSHKOSH        CLOUDY    78  70  76 S8        30.00F HX  80
6HR MIN TEMP:  67; 6HR MAX TEMP:  78; 6HR PCP:  0.04;

$$

WIZ032>034-041-042-053>061-261900-
SOUTHWEST WISCONSIN

CITY           SKY/WX    TMP DP  RH WIND       PRES   REMARKS
LA CROSSE      CLOUDY    80  72  76 S10       30.01R HX  84
6HR MIN TEMP:  75; 6HR MAX TEMP:  81; 6HR PCP: TRACE;

SPARTA         CLOUDY    77  69  77 CALM      30.02S
VIROQUA        CLOUDY    75  73  91 CALM      30.04S
BOSCOBEL       CLOUDY    80  71  74 S5        30.00F HX  84
6HR MIN TEMP:  69; 6HR MAX TEMP:  81;

PRAIRIE DU CHI CLOUDY    78  69  74 CALM      30.01F HX  80
PLATTEVILLE    CLOUDY    77  75  94 CALM      30.05S
$$

WIZ056-057-062-063-064-067-068-261900-
SOUTH CENTRAL WISCONSIN

CITY           SKY/WX    TMP DP  RH WIND       PRES   REMARKS
REEDSBURG      CLOUDY    78  74  86 SW6       30.01F HX  80
BARABOO/DELLS  CLOUDY    80  69  67 SW6       30.02F HX  83
LONE ROCK      NOT AVBL
MINERAL POINT  CLOUDY    77  73  88 CALM      30.05F
MADISON        CLOUDY    77  70  79 SW3       30.02F THUNDER
6HR MIN TEMP:  68; 6HR MAX TEMP:  78;

MIDDLETON      CLOUDY    78  71  78 SW6       30.04F HX  80
WATERTOWN      CLOUDY    79  74  83 SW9       30.03F HX  83
MONROE         PTSUNNY   79  70  73 SW6       30.05F HX  81
JANESVILLE     NOT AVBL
$$

WIZ051-052-058>065-066-070>072-261900-
SOUTHEAST WISCONSIN

CITY           SKY/WX    TMP DP  RH WIND       PRES   REMARKS
MILWAUKEE      CLOUDY    84  71  65 W10       30.03F HX  89
6HR MIN TEMP:  69; 6HR MAX TEMP:  84;

WAUKESHA       SUNNY     79  68  69 W10       30.05F HX  81
MILWAUKEE/TIMM MOSUNNY   81  66  61 W7        30.04S HX  83
RACINE         PTSUNNY   82  72  71 W9        30.05F HX  87
6HR MIN TEMP:  68; 6HR MAX TEMP:  82;

KENOSHA        PTSUNNY   83  71  67 W9        30.04F HX  87
6HR MIN TEMP:  68; 6HR MAX TEMP:  83;

FOND DU LAC    CLOUDY    76  68  76 SW6       30.01F
6HR MIN TEMP:  67; 6HR MAX TEMP:  77; 6HR PCP: TRACE;

SHEBOYGAN      CLOUDY    78  72  81 SW9       30.01F HX  80
6HR MIN TEMP:  66; 6HR MAX TEMP:  78; 6HR PCP:  0.11;

WEST BEND      CLOUDY    77  70  78 SW7       30.03F
JUNEAU         CLOUDY    76  69  80 S10       30.04F
$$

LSZ147-162-261900-
LAKE SUPERIOR

STATION/POSITION TIME  TEMP    WIND        PRES    WAVE
                       AIR SEA DIR/SP/G            HT/PER
                 (UTC) (F)     (DEG/KT/KT) (MB)    (FT/S)
W MID LAKE BUOY  1650   57 51  260/  8/  8 1013.9S   0
DEVILS ISLAND    1700   65     240/ 12/ 14 1014.7F
SAXON HARBOR     1740   73     330/  3/  5 1014.6F
$$

LMZ867-665-643>646-261900-
LAKE MICHIGAN

STATION/POSITION TIME  TEMP    WIND        PRES    WAVE
                       AIR SEA DIR/SP/G            HT/PER
                 (UTC) (F)     (DEG/KT/KT) (MB)    (FT/S)
CHAMBERS ISLAND  1740   70     190/  6/ 10 1013.5R
S GREEN BAY BUOY 1730   71 71  220/ 17/ 21 1014.7S
N MID LAKE BUOY  1550   67 65  210/ 17/ 19 1015.6R   5/ 6
NORTHPORT PIER   1740   69     240/  2/  5 1013.9F
KEWAUNEE LAKESHO 1730   71     210/  6/  8 1014.9R
SHEBOYGAN LAKESH 1700   70     160/  8/  9 1016.2F
PORT WASHINGTON  1740   82     230/  5/ 10 1017.6F
ATWATER BUOY     1609   77 69  220/ 10/ 12 1017.6R
MILWAUKEE LAKESH 1730   80     240/  9/ 12   N/A
S MID LAKE BUOY  1650   71 70  190/ 14/ 16 1017.2F   3/ 5
KENOSHA   LAKESH 1700   73     160/ 13/ 14 1016.6
$$

TC  - TEMPERATURE IN CELSIUS
VSB - VISIBILITY IN STATUTE MILES
WCI - WIND CHILL INDEX
HX  - HEAT INDEX




USA.gov is the U.S. government's official web portal to all federal, state and local government web resources and services.